This is the latest recevied weather packets stored in our database for station/object KE0TNI-13. If no packets are shown the sender has not sent any weather packets the latest 10 day(s).
| Time | Temp. | Humidity | Pressure | Rain* | Wind** | Luminosity | Snow |
|---|---|---|---|---|---|---|---|
| 1777958640 | 1.67° C | 96% | 1015.2 hPa | 0 mm | - | 0 W/m² | - |
| 1777958338 | 1.67° C | 96% | 1015 hPa | 0 mm | - | 0 W/m² | - |
| 1777958035 | 1.67° C | 96% | 1015.2 hPa | 0 mm | - | 0 W/m² | - |
| 1777957733 | 1.67° C | 96% | 1015.4 hPa | 0 mm | - | 0 W/m² | - |
| 1777957431 | 1.67° C | 96% | 1015.4 hPa | 0 mm | - | 0 W/m² | - |
| 1777957127 | 1.67° C | 96% | 1015.3 hPa | 0 mm | - | 0 W/m² | - |
| 1777956824 | 1.67° C | 96% | 1015.6 hPa | 0 mm | - | 0 W/m² | - |
| 1777956521 | 1.67° C | 96% | 1015.3 hPa | 0 mm | - | 0 W/m² | - |
| 1777956218 | 1.67° C | 95% | 1015.2 hPa | 0 mm | - | 0 W/m² | - |
| 1777955915 | 2.22° C | 96% | 1015.4 hPa | 0 mm | - | 0 W/m² | - |
| 1777955611 | 2.22° C | 95% | 1015.4 hPa | 0 mm | - | 0 W/m² | - |
| 1777955307 | 2.22° C | 95% | 1015.7 hPa | 0 mm | - | 0 W/m² | - |
| 1777955004 | 2.22° C | 95% | 1015.8 hPa | 0 mm | - | 0 W/m² | - |
| 1777954701 | 2.22° C | 95% | 1015.4 hPa | 0.51 mm | - | 0 W/m² | - |
| 1777954399 | 2.22° C | 95% | 1015.7 hPa | 1.27 mm | - | 0 W/m² | - |
| 1777954095 | 2.22° C | 95% | 1015.9 hPa | 2.29 mm | - | 0 W/m² | - |
| 1777953793 | 2.22° C | 94% | 1016.1 hPa | 3.56 mm | - | 0 W/m² | - |
| 1777953490 | 1.67° C | 94% | 1016.1 hPa | 3.56 mm | - | 0 W/m² | - |
| 1777953185 | 2.22° C | 94% | 1015.9 hPa | 3.56 mm | - | 0 W/m² | - |
| 1777952883 | 2.22° C | 94% | 1016.2 hPa | 3.05 mm | - | 0 W/m² | - |
| 1777952579 | 2.22° C | 94% | 1016.5 hPa | 4.32 mm | - | 0 W/m² | - |
| 1777952276 | 2.78° C | 94% | 1016.2 hPa | 5.33 mm | - | 0 W/m² | - |
| 1777951974 | 2.78° C | 94% | 1015.9 hPa | 4.83 mm | - | 0 W/m² | - |
| 1777951671 | 3.33° C | 94% | 1016.1 hPa | 3.05 mm | - | 0 W/m² | - |
| 1777951367 | 3.33° C | 94% | 1016.2 hPa | 2.29 mm | - | 0 W/m² | - |
* Rain latest hour (hover to see other rain measurements)
** Current wind speed in m/s (hover to see current wind gust speed)